This demonstration page uses our WeatherBlox Daily Observations layout. Learn more.

Left ArrowRight Arrow

40.97296, -117.73568

Hourly Observations for May 10, 2022

Temp ( °F °C ) Dew Point ( °F °C ) Humidity (%) Winds ( mph kmh ) Pressure ( in mb ) Visibility ( mi km ) Precip ( " mm )
12:56 am 00:56 Cloudy 30 -1.1 26 -3.3 85 85 SSE 5 7 29.93 1014 10 16 0.00 0.00
1:56 am 01:56 Cloudy 34 1.1 27 -2.8 76 76 NNE 5 7 29.94 1014 10 16 0.00 0.00
2:56 am 02:56 Cloudy 34 1.1 28 -2.2 79 79 Calm 29.95 1014 10 16 0.00 0.00
3:24 am 03:24 Cloudy with Light Snow 35 1.7 27 -2.8 72 72 Calm 30.03 1017 7 11 0.00 0.00
3:56 am 03:56 Cloudy with Light Snow 34 1.1 29 -1.7 82 82 E 6 9 29.98 1015 4 6 0.00 0.00
4:56 am 04:56 Cloudy with Light Snow 33 0.6 30 -1.1 89 89 S 3 6 29.97 1015 8 13 0.00 0.00
5:56 am 05:56 Cloudy with Light Snow 33 0.6 31 -0.6 92 92 S 7 11 29.98 1015 7 11 0.00 0.00
6:56 am 06:56 Cloudy 33 0.6 31 -0.6 92 92 S 8 13 30.02 1017 10 16 0.00 0.00
7:41 am 07:41 Cloudy 34 1.1 31 -0.6 89 89 S 6 9 30.11 1020 10 16 0.00 0.00
7:56 am 07:56 Cloudy 35 1.7 32 0 89 89 S 8 13 30.04 1017 10 16 0.00 0.00
8:12 am 08:12 Mostly Cloudy 35 1.7 30 -1.1 82 82 S 8 13 30.10 1019 10 16 0.00 0.00
8:26 am 08:26 Mostly Cloudy 36 2.2 31 -0.6 82 82 S 8 13 30.09 1019 10 16 0.00 0.00
8:47 am 08:47 Mostly Cloudy 39 3.9 31 -0.6 73 73 S 7 11 30.06 1018 10 16 0.00 0.00
8:56 am 08:56 Mostly Cloudy 40 4.4 30 -1.1 68 68 SSE 8 13 30.03 1017 10 16 0.00 0.00
9:26 am 09:26 Mostly Cloudy 40 4.4 29 -1.7 65 65 SSE 8 13 30.05 1018 10 16 0.00 0.00
9:56 am 09:56 Cloudy 41 5 26 -3.3 55 55 VRB 7 11 30.02 1017 10 16 0.00 0.00
10:03 am 10:03 Cloudy 40 4.4 28 -2.2 63 63 S 9 15 30.05 1018 10 16 0.00 0.00
10:56 am 10:56 Cloudy 37 2.8 29 -1.7 73 73 ESE 12 19 30.06 1018 10 16 0.00 0.00
11:56 am 11:56 Mostly Cloudy 45 7.2 23 -5 42 42 VRB 7 11 30.04 1017 10 16 0.00 0.00
12:56 pm 12:56 Partly Cloudy 45 7.2 23 -5 42 42 VRB 6 9 30.03 1017 10 16 0.00 0.00
1:56 pm 13:56 Mostly Cloudy 46 7.8 18 -7.8 32 32 W 3 6 30.02 1017 10 16 0.00 0.00
2:56 pm 14:56 Mostly Sunny 47 8.3 24 -4.4 41 41 SE 16 26 30.03 1017 10 16 0.00 0.00
3:56 pm 15:56 Mostly Cloudy 44 6.7 22 -5.6 41 41 SW 5 7 30.03 1017 10 16 0.00 0.00
4:56 pm 16:56 Sunny 49 9.4 23 -5 36 36 N 8 13 30.01 1016 10 16 0.00 0.00
5:56 pm 17:56 Partly Cloudy 44 6.7 25 -3.9 47 47 N 15 24 30.04 1017 10 16 0.00 0.00
6:56 pm 18:56 Mostly Sunny 45 7.2 23 -5 42 42 NW 8 13 30.04 1017 10 16 0.00 0.00
7:56 pm 19:56 Sunny 41 5 24 -4.4 51 51 NNW 7 11 30.06 1018 10 16 0.00 0.00
8:56 pm 20:56 Mostly Clear 38 3.3 25 -3.9 60 60 N 5 7 30.08 1019 10 16 0.00 0.00
9:56 pm 21:56 Cloudy 38 3.3 26 -3.3 62 62 NW 6 9 30.08 1019 10 16 0.00 0.00
10:56 pm 22:56 Cloudy 38 3.3 27 -2.8 65 65 NW 9 15 30.09 1019 10 16 0.00 0.00
11:56 pm 23:56 Cloudy 37 2.8 28 -2.2 70 70 N 6 9 30.08 1019 10 16 0.00 0.00

Powered by AerisWeather